Regional Weather Roundup
Issued by NWS

Home | Current Version | Previous Version | Graphics & Text | Print | Product List | Glossary On
Versions: 1 2 3 4 5 6 7 8 9 10 11 12 13 14 15 16 17 18 19 20 21 22 23 24 25 26 27 28 29 30 31 32 33 34 35 36 37 38 39 40 41 42 43 44 45 46 47 48 49 50
000
ASUS43 KOAX 221610
RWRNE

WEATHER ROUNDUP FOR NEBRASKA
NATIONAL WEATHER SERVICE OMAHA NE
1100 AM CDT FRI SEP 22 2017

NOTES: SATELLITE DATA IS BEING USED TO AUGMENT CLOUD COVER ABOVE
       12000 FEET.
       "FAIR" INDICATES FEW OR NO CLOUDS BELOW 12,000 FEET WITH NO
       SIGNIFICANT WEATHER AND/OR OBSTRUCTIONS TO VISIBILITY.


NEZ001>004-019>022-054>056-221700-
NEBRASKA PANHANDLE

CITY           SKY/WX    TMP DP  RH WIND       PRES   REMARKS
SCOTTSBLUFF    SUNNY     57  40  52 NW6       29.84R
ALLIANCE       SUNNY     59  43  55 N9        29.83R
CHADRON        CLOUDY    55  36  48 NW8       29.84R
GORDON         PTSUNNY   58  44  58 NW14      29.80R
KIMBALL        SUNNY     56  42  59 N10       29.86R
SIDNEY         SUNNY     59  43  55 N12       29.84R
$$

NEZ057>060-069>072-079>082-221700-
SOUTHWEST NEBRASKA

CITY           SKY/WX    TMP DP  RH WIND       PRES   REMARKS
NORTH PLATTE   SUNNY     82  58  43 S14G26    29.74R
IMPERIAL       SUNNY     76  42  29 SW15      29.78R
LEXINGTON      SUNNY     86  61  42 S20G25    29.76S
MCCOOK         LGT RAIN  87  58  37 S25G32    29.75R
OGALLALA       SUNNY     66  44  44 CALM      29.79R
$$

NEZ005>010-023>029-035>040-094-221700-
NORTH CENTRAL NEBRASKA

CITY           SKY/WX    TMP DP  RH WIND       PRES   REMARKS
VALENTINE      SUNNY     66  47  50 W13       29.75R
AINSWORTH      SUNNY     66  52  60 W14       29.74R
BROKEN BOW     SUNNY     84  62  47 S21G33    29.74R
O`NEILL        SUNNY     84  67  56 S20G30    29.71S
ORD            SUNNY     83  64  52 S24G31    29.73R
THEDFORD       SUNNY     79  58  48 SW14G21   29.76R
$$

NEZ041-046>049-061>064-073>077-083>087-221700-
SOUTH CENTRAL NEBRASKA

CITY           SKY/WX    TMP DP  RH WIND       PRES   REMARKS
GRAND ISLAND   SUNNY     86  67  52 S22G30    29.78S
AURORA         SUNNY     84  66  54 S20G26    29.80S
HASTINGS       SUNNY     86  64  47 S17G25    29.81S
HEBRON         SUNNY     87  67  52 S22       29.84S
HOLDREGE       SUNNY     84  59  43 S30G38    29.78R
KEARNEY        SUNNY     88  63  43 S26G39    29.76F
YORK           SUNNY     84  68  58 S20G28    29.82R
$$

NEZ011>018-030>034-042>045-221700-
NORTHEAST NEBRASKA

CITY           SKY/WX    TMP DP  RH WIND       PRES   REMARKS
NORFOLK        SUNNY     84  68  58 S21G33    29.74F
ALBION         SUNNY     83  70  62 S22G28    29.76S
BLAIR          SUNNY     85  69  60 S16G26    29.84S
COLUMBUS       SUNNY     85  69  58 S21       29.80R
FREMONT        SUNNY     85  68  57 S16G22    29.83S
TEKAMAH        SUNNY     85  69  58 S15G24    29.82S
WAYNE          SUNNY     82  71  69 S24G30    29.77S
$$

NEZ050>053-065>068-078-088>093-221700-
SOUTHEAST NEBRASKA

CITY           SKY/WX    TMP DP  RH WIND       PRES   REMARKS
LINCOLN        SUNNY     87  69  54 S22       29.83S HX  91
OMAHA EPPLEY   MOSUNNY   85  70  60 S18       29.85R
BEATRICE       SUNNY     87  69  55 S22       29.86S HX  91
FALLS CITY     SUNNY     84  70  62 S17G25    29.91R
NEBRASKA CITY  SUNNY     84  72  67 S15G21    29.88F
PLATTSMOUTH    SUNNY     85  71  63 S16       29.86F HX  90
$$

NEZ044-045-051>053-067-221700-
OMAHA AREA

CITY           SKY/WX    TMP DP  RH WIND       PRES   REMARKS
OMAHA EPPLEY   MOSUNNY   85  70  60 S18       29.85R
BLAIR          SUNNY     85  69  60 S16G26    29.84S
FREMONT        SUNNY     85  68  57 S16G22    29.83S
MILLARD        SUNNY     87  71  58 S15G21    29.85S HX  93
OFFUTT AFB     SUNNY     85  70  61 SE12G18   29.85S
PLATTSMOUTH    SUNNY     85  71  63 S16       29.86F HX  90
WAHOO          FAIR      86  67  52 S15G30    29.83S
$$



USA.gov is the U.S. government's official web portal to all federal, state and local government web resources and services.